| time (UTC) | temp C | wind direction | speed KPH | gust KPH | rain 1hr cm | rain 24hr cm | rain mn cm | humidity % | barometer mb |
| 20260504033515 | 3 | 286 | 0.0 | 0.0 | 0.00 | 0.00 | 0.00 | 80 | 1018.3 |
| 20260504033012 | 3 | 286 | 0.0 | 0.0 | 0.00 | 0.00 | 0.00 | 82 | 1018.1 |
| 20260504032509 | 3 | 286 | 0.0 | 0.0 | 0.00 | 0.00 | 0.00 | 81 | 1018.1 |
| 20260504032005 | 3 | 286 | 0.0 | 0.0 | 0.00 | 0.00 | 0.00 | 79 | 1018.0 |
| 20260504031502 | 3 | 286 | 0.0 | 0.0 | 0.00 | 0.00 | 0.00 | 79 | 1018.1 |
| 20260504030959 | 3 | 286 | 0.0 | 0.0 | 0.00 | 0.00 | 0.00 | 80 | 1018.0 |
| 20260504030456 | 3 | 286 | 0.0 | 0.0 | 0.00 | 0.00 | 0.00 | 76 | 1017.8 |
| 20260504025951 | 3 | 286 | 0.0 | 0.0 | 0.00 | 0.00 | 0.00 | 79 | 1018.2 |
| 20260504025449 | 4 | 286 | 0.0 | 0.0 | 0.00 | 0.00 | 0.00 | 78 | 1018.2 |
| 20260504024946 | 4 | 286 | 0.0 | 0.0 | 0.00 | 0.00 | 0.00 | 80 | 1018.3 |
| 20260504024443 | 4 | 286 | 0.0 | 0.0 | 0.00 | 0.00 | 0.00 | 78 | 1018.4 |
| 20260504023940 | 4 | 286 | 0.0 | 0.0 | 0.00 | 0.00 | 0.00 | 79 | 1018.1 |
| 20260504023436 | 4 | 286 | 0.0 | 0.0 | 0.00 | 0.00 | 0.00 | 79 | 1018.2 |
| 20260504022932 | 4 | 286 | 0.0 | 0.0 | 0.00 | 0.00 | 0.00 | 78 | 1018.1 |
| 20260504022428 | 5 | 286 | 0.0 | 0.0 | 0.00 | 0.00 | 0.00 | 78 | 1018.2 |
| 20260504021925 | 5 | 286 | 0.0 | 0.0 | 0.00 | 0.00 | 0.00 | 77 | 1018.3 |
| 20260504021422 | 5 | 286 | 0.0 | 0.0 | 0.00 | 0.00 | 0.00 | 75 | 1018.3 |
| 20260504020920 | 5 | 286 | 0.0 | 0.0 | 0.00 | 0.00 | 0.00 | 74 | 1018.1 |
| 20260504020416 | 5 | 286 | 0.0 | 0.0 | 0.00 | 0.00 | 0.00 | 77 | 1018.0 |
| 20260504015913 | 5 | 286 | 0.0 | 0.0 | 0.00 | 0.00 | 0.00 | 76 | 1017.9 |
| 20260504015409 | 5 | 286 | 0.0 | 0.0 | 0.00 | 0.00 | 0.00 | 74 | 1018.0 |
| 20260504014905 | 6 | 286 | 0.0 | 0.0 | 0.00 | 0.00 | 0.00 | 72 | 1017.8 |
| 20260504014401 | 6 | 286 | 0.0 | 0.0 | 0.00 | 0.00 | 0.00 | 71 | 1017.7 |
| 20260504013853 | 6 | 286 | 0.0 | 0.0 | 0.00 | 0.00 | 0.00 | 70 | 1017.7 |
| 20260504013351 | 6 | 286 | 0.0 | 0.0 | 0.00 | 0.00 | 0.00 | 72 | 1017.7 |
| 20260504012847 | 6 | 286 | 0.0 | 0.0 | 0.00 | 0.00 | 0.00 | 72 | 1017.5 |
| 20260504012345 | 6 | 286 | 0.0 | 0.0 | 0.00 | 0.00 | 0.00 | 70 | 1017.7 |
| 20260504011842 | 7 | 286 | 0.0 | 0.0 | 0.00 | 0.00 | 0.00 | 65 | 1017.5 |
| 20260504011338 | 7 | 286 | 0.0 | 0.0 | 0.00 | 0.00 | 0.00 | 65 | 1017.3 |
| 20260504010835 | 7 | 286 | 0.0 | 0.0 | 0.00 | 0.00 | 0.00 | 56 | 1017.4 |
| 20260504010330 | 7 | 286 | 0.0 | 0.0 | 0.00 | 0.00 | 0.00 | 63 | 1017.4 |
| 20260504005827 | 7 | 286 | 0.0 | 0.0 | 0.00 | 0.00 | 0.00 | 62 | 1017.1 |
| 20260504005324 | 8 | 286 | 0.0 | 0.0 | 0.00 | 0.00 | 0.00 | 58 | 1017.1 |
| 20260504004822 | 8 | 286 | 0.0 | 0.0 | 0.00 | 0.00 | 0.00 | 51 | 1017.3 |
| 20260504004319 | 8 | 286 | 0.0 | 0.0 | 0.00 | 0.00 | 0.00 | 52 | 1017.4 |
| 20260504003815 | 8 | 286 | 0.0 | 0.0 | 0.00 | 0.00 | 0.00 | 52 | 1017.2 |
| 20260504003312 | 8 | 286 | 0.0 | 0.0 | 0.00 | 0.00 | 0.00 | 52 | 1017.1 |
| 20260504002808 | 9 | 286 | 0.0 | 0.0 | 0.00 | 0.00 | 0.00 | 48 | 1017.2 |
| 20260504002306 | 9 | 286 | 0.0 | 0.0 | 0.00 | 0.00 | 0.00 | 46 | 1017.2 |
| 20260504001803 | 10 | 286 | 0.0 | 0.0 | 0.00 | 0.00 | 0.00 | 48 | 1017.2 |
| 20260504001300 | 10 | 286 | 0.0 | 0.0 | 0.00 | 0.00 | 0.00 | 46 | 1017.1 |
| 20260504000757 | 10 | 286 | 0.0 | 0.0 | 0.00 | 0.00 | 0.00 | 42 | 1017.1 |
| 20260504000255 | 11 | 286 | 0.0 | 0.0 | 0.00 | 0.00 | 0.00 | 42 | 1017.1 |
| 20260503235753 | 11 | 286 | 0.0 | 0.0 | 0.00 | 0.00 | 0.00 | 39 | 1017.2 |
| 20260503235250 | 12 | 286 | 0.0 | 1.6 | 0.00 | 0.00 | 0.00 | 38 | 1016.9 |
| 20260503234747 | 12 | 286 | 0.0 | 1.6 | 0.00 | 0.00 | 0.00 | 36 | 1017.0 |
| 20260503234245 | 12 | 286 | 0.0 | 3.2 | 0.00 | 0.00 | 0.00 | 34 | 1017.1 |
| 20260503233742 | 12 | 286 | 1.6 | 3.2 | 0.00 | 0.00 | 0.00 | 35 | 1017.1 |
| 20260503233238 | 13 | 295 | 0.0 | 3.2 | 0.00 | 0.00 | 0.00 | 35 | 1017.1 |
| 20260503232735 | 13 | 290 | 1.6 | 3.2 | 0.00 | 0.00 | 0.00 | 31 | 1017.3 |
| 20260503232232 | 13 | 313 | 0.0 | 4.8 | 0.00 | 0.00 | 0.00 | 30 | 1017.1 |
| 20260503231730 | 13 | 277 | 4.8 | 6.4 | 0.00 | 0.00 | 0.00 | 30 | 1017.0 |
| 20260503231226 | 13 | 310 | 4.8 | 6.4 | 0.00 | 0.00 | 0.00 | 30 | 1017.4 |
| 20260503230722 | 14 | 301 | 1.6 | 4.8 | 0.00 | 0.00 | 0.00 | 31 | 1017.2 |
| 20260503230220 | 14 | 316 | 3.2 | 4.8 | 0.00 | 0.00 | 0.00 | 32 | 1017.0 |
| 20260503225717 | 13 | 280 | 3.2 | 3.2 | 0.00 | 0.00 | 0.00 | 30 | 1017.1 |
| 20260503225212 | 14 | 266 | 4.8 | 9.7 | 0.00 | 0.00 | 0.00 | 29 | 1017.2 |
| 20260503224709 | 15 | 285 | 3.2 | 4.8 | 0.00 | 0.00 | 0.00 | 31 | 1017.1 |
| 20260503224207 | 15 | 15 | 3.2 | 4.8 | 0.00 | 0.00 | 0.00 | 29 | 1017.1 |
| 20260503223704 | 15 | 20 | 1.6 | 4.8 | 0.00 | 0.00 | 0.00 | 29 | 1017.0 |
| 20260503223201 | 15 | 346 | 3.2 | 9.7 | 0.00 | 0.00 | 0.00 | 29 | 1017.1 |
| 20260503222658 | 15 | 296 | 4.8 | 4.8 | 0.00 | 0.00 | 0.00 | 30 | 1017.2 |
| 20260503222156 | 16 | 277 | 1.6 | 4.8 | 0.00 | 0.00 | 0.00 | 30 | 1017.0 |
| 20260503221654 | 16 | 282 | 3.2 | 6.4 | 0.00 | 0.00 | 0.00 | 30 | 1017.2 |
| 20260503221151 | 16 | 332 | 1.6 | 3.2 | 0.00 | 0.00 | 0.00 | 28 | 1016.9 |
| 20260503220648 | 16 | 304 | 3.2 | 3.2 | 0.00 | 0.00 | 0.00 | 29 | 1017.1 |
| 20260503220144 | 15 | 290 | 4.8 | 4.8 | 0.00 | 0.00 | 0.00 | 27 | 1017.2 |
| 20260503215641 | 16 | 57 | 3.2 | 3.2 | 0.00 | 0.00 | 0.00 | 25 | 1017.2 |
| 20260503215137 | 15 | 298 | 1.6 | 4.8 | 0.00 | 0.00 | 0.00 | 27 | 1017.2 |
| 20260503214637 | 15 | 263 | 1.6 | 3.2 | 0.00 | 0.00 | 0.00 | 27 | 1017.3 |
| 20260503214132 | 16 | 287 | 1.6 | 3.2 | 0.00 | 0.00 | 0.00 | 25 | 1017.2 |
| 20260503213631 | 16 | 311 | 3.2 | 9.7 | 0.00 | 0.00 | 0.00 | 28 | 1017.4 |
| 20260503213127 | 16 | 277 | 3.2 | 4.8 | 0.00 | 0.00 | 0.00 | 28 | 1017.3 |
| 20260503212625 | 16 | 253 | 8.0 | 9.7 | 0.00 | 0.00 | 0.00 | 26 | 1017.5 |
| 20260503212122 | 15 | 292 | 1.6 | 4.8 | 0.00 | 0.00 | 0.00 | 29 | 1017.4 |
| 20260503211620 | 16 | 283 | 4.8 | 6.4 | 0.00 | 0.00 | 0.00 | 26 | 1017.5 |
| 20260503211115 | 16 | 295 | 4.8 | 4.8 | 0.00 | 0.00 | 0.00 | 26 | 1017.2 |
| 20260503210612 | 15 | 149 | 1.6 | 4.8 | 0.00 | 0.00 | 0.00 | 24 | 1017.5 |
| 20260503210109 | 16 | 288 | 3.2 | 3.2 | 0.00 | 0.00 | 0.00 | 26 | 1017.4 |
| 20260503205604 | 16 | 291 | 1.6 | 6.4 | 0.00 | 0.00 | 0.00 | 27 | 1017.7 |
| 20260503205101 | 15 | 309 | 4.8 | 11.3 | 0.00 | 0.00 | 0.00 | 29 | 1017.5 |
| 20260503204558 | 15 | 299 | 8.0 | 11.3 | 0.00 | 0.00 | 0.00 | 29 | 1017.7 |
| 20260503204055 | 16 | 287 | 3.2 | 17.7 | 0.00 | 0.00 | 0.00 | 30 | 1017.8 |
| 20260503203552 | 15 | 285 | 3.2 | 6.4 | 0.00 | 0.00 | 0.00 | 29 | 1017.8 |
| 20260503203049 | 15 | 294 | 3.2 | 6.4 | 0.00 | 0.00 | 0.00 | 28 | 1018.0 |
| 20260503202547 | 16 | 281 | 6.4 | 9.7 | 0.00 | 0.00 | 0.00 | 28 | 1018.0 |
| 20260503202045 | 15 | 321 | 4.8 | 4.8 | 0.00 | 0.00 | 0.00 | 31 | 1017.8 |
| 20260503201543 | 16 | 297 | 4.8 | 9.7 | 0.00 | 0.00 | 0.00 | 28 | 1018.1 |
| 20260503201040 | 16 | 313 | 4.8 | 12.9 | 0.00 | 0.00 | 0.00 | 29 | 1018.3 |
| 20260503200536 | 15 | 268 | 6.4 | 9.7 | 0.00 | 0.00 | 0.00 | 30 | 1018.2 |
| 20260503200033 | 16 | 358 | 4.8 | 9.7 | 0.00 | 0.00 | 0.00 | 29 | 1018.3 |
| 20260503195530 | 15 | 280 | 3.2 | 6.4 | 0.00 | 0.00 | 0.00 | 32 | 1018.1 |
| 20260503195027 | 15 | 278 | 6.4 | 12.9 | 0.00 | 0.00 | 0.00 | 30 | 1018.4 |
| 20260503194524 | 15 | 309 | 4.8 | 4.8 | 0.00 | 0.00 | 0.00 | 31 | 1018.6 |
| 20260503194023 | 15 | 278 | 1.6 | 6.4 | 0.00 | 0.00 | 0.00 | 29 | 1018.6 |
| 20260503193521 | 15 | 346 | 1.6 | 4.8 | 0.00 | 0.00 | 0.00 | 29 | 1018.8 |
| 20260503193016 | 14 | 305 | 3.2 | 4.8 | 0.00 | 0.00 | 0.00 | 29 | 1018.8 |
| 20260503192512 | 13 | 337 | 3.2 | 6.4 | 0.00 | 0.00 | 0.00 | 30 | 1018.8 |
| 20260503192008 | 13 | 295 | 4.8 | 6.4 | 0.00 | 0.00 | 0.00 | 31 | 1018.9 |
| 20260503191505 | 13 | 300 | 4.8 | 11.3 | 0.00 | 0.00 | 0.00 | 30 | 1018.9 |
| 20260503191002 | 13 | 290 | 6.4 | 9.7 | 0.00 | 0.00 | 0.00 | 30 | 1019.3 |
| 20260503190459 | 14 | 257 | 3.2 | 14.5 | 0.00 | 0.00 | 0.00 | 29 | 1019.0 |
| 20260503185956 | 14 | 295 | 3.2 | 4.8 | 0.00 | 0.00 | 0.00 | 31 | 1019.0 |
| 20260503185452 | 13 | 282 | 6.4 | 6.4 | 0.00 | 0.00 | 0.00 | 30 | 1019.3 |
| 20260503184951 | 13 | 291 | 4.8 | 9.7 | 0.00 | 0.00 | 0.00 | 32 | 1019.3 |
| 20260503184448 | 13 | 285 | 3.2 | 4.8 | 0.00 | 0.00 | 0.00 | 30 | 1019.2 |
| 20260503183944 | 13 | 281 | 8.0 | 9.7 | 0.00 | 0.00 | 0.00 | 34 | 1019.3 |
| 20260503183441 | 13 | 197 | 1.6 | 12.9 | 0.00 | 0.00 | 0.00 | 32 | 1019.4 |
| 20260503182938 | 13 | 1 | 4.8 | 11.3 | 0.00 | 0.00 | 0.00 | 31 | 1019.6 |
| 20260503182437 | 13 | 301 | 6.4 | 6.4 | 0.00 | 0.00 | 0.00 | 31 | 1019.7 |
| 20260503181934 | 12 | 273 | 6.4 | 9.7 | 0.00 | 0.00 | 0.00 | 35 | 1019.6 |
| 20260503181431 | 13 | 340 | 3.2 | 4.8 | 0.00 | 0.00 | 0.00 | 31 | 1019.6 |
| 20260503180927 | 12 | 290 | 6.4 | 9.7 | 0.00 | 0.00 | 0.00 | 32 | 1019.7 |
| 20260503180427 | 12 | 249 | 4.8 | 9.7 | 0.00 | 0.00 | 0.00 | 34 | 1019.7 |
| 20260503175922 | 13 | 136 | 1.6 | 6.4 | 0.00 | 0.00 | 0.00 | 33 | 1019.6 |
| 20260503175420 | 12 | 327 | 4.8 | 9.7 | 0.00 | 0.00 | 0.00 | 40 | 1019.7 |
| 20260503174915 | 12 | 311 | 4.8 | 16.1 | 0.00 | 0.00 | 0.00 | 37 | 1019.9 |
| 20260503174415 | 12 | 305 | 3.2 | 9.7 | 0.00 | 0.00 | 0.00 | 37 | 1019.9 |
| 20260503173914 | 13 | 293 | 1.6 | 4.8 | 0.00 | 0.00 | 0.00 | 37 | 1019.9 |
| 20260503173411 | 11 | 290 | 0.0 | 1.6 | 0.00 | 0.00 | 0.00 | 35 | 1019.9 |
| 20260503172908 | 11 | 289 | 6.4 | 11.3 | 0.00 | 0.00 | 0.00 | 37 | 1020.0 |
| 20260503172405 | 12 | 342 | 3.2 | 9.7 | 0.00 | 0.00 | 0.00 | 32 | 1020.1 |
| 20260503171901 | 11 | 317 | 6.4 | 6.4 | 0.00 | 0.00 | 0.00 | 40 | 1020.1 |
| 20260503171358 | 12 | 325 | 3.2 | 4.8 | 0.00 | 0.00 | 0.00 | 37 | 1020.1 |
| 20260503170855 | 11 | 297 | 4.8 | 6.4 | 0.00 | 0.00 | 0.00 | 39 | 1020.3 |
| 20260503170352 | 12 | 313 | 3.2 | 6.4 | 0.00 | 0.00 | 0.00 | 37 | 1020.3 |
| 20260503150744 | 8 | 307 | 4.8 | 6.4 | 0.00 | 0.00 | 0.00 | 46 | 1021.3 |
| 20260503150240 | 7 | 309 | 6.4 | 6.4 | 0.00 | 0.00 | 0.00 | 46 | 1021.1 |
| 20260503140204 | 5 | 311 | 3.2 | 6.4 | 0.00 | 0.00 | 0.00 | 53 | 1021.1 |
| 20260503131134 | 3 | 298 | 4.8 | 4.8 | 0.00 | 0.00 | 0.00 | 69 | 1021.1 |
| 20260503130632 | 3 | 290 | 3.2 | 6.4 | 0.00 | 0.00 | 0.00 | 69 | 1021.0 |
| 20260503130129 | 3 | 303 | 3.2 | 4.8 | 0.00 | 0.00 | 0.00 | 70 | 1020.8 |
| 20260503110517 | -1 | 281 | 0.0 | 0.0 | 0.00 | 0.00 | 0.00 | 88 | 1019.4 |
| 20260503090356 | 0 | 298 | 0.0 | 1.6 | 0.00 | 0.00 | 0.00 | 84 | 1018.1 |
| 20260503081318 | 1 | 298 | 1.6 | 1.6 | 0.00 | 0.00 | 0.00 | 80 | 1017.5 |
| 20260503080814 | 1 | 298 | 1.6 | 1.6 | 0.00 | 0.00 | 0.00 | 79 | 1017.8 |
| 20260503080311 | 1 | 298 | 0.0 | 1.6 | 0.00 | 0.00 | 0.00 | 79 | 1017.7 |
| 20260503072747 | 2 | 298 | 0.0 | 1.6 | 0.00 | 0.00 | 0.00 | 76 | 1017.3 |
| 20260503072244 | 2 | 298 | 1.6 | 3.2 | 0.00 | 0.00 | 0.00 | 76 | 1017.2 |
| 20260503071740 | 2 | 298 | 0.0 | 3.2 | 0.00 | 0.00 | 0.00 | 78 | 1017.4 |
| 20260503071237 | 2 | 298 | 0.0 | 1.6 | 0.00 | 0.00 | 0.00 | 78 | 1017.1 |
| 20260503070733 | 2 | 302 | 1.6 | 1.6 | 0.00 | 0.00 | 0.00 | 80 | 1017.2 |
| 20260503070231 | 2 | 302 | 0.0 | 0.0 | 0.00 | 0.00 | 0.00 | 80 | 1017.1 |
| 20260503060150 | 1 | 302 | 0.0 | 0.0 | 0.00 | 0.00 | 0.00 | 81 | 1017.2 |
| 20260503054637 | 1 | 302 | 0.0 | 0.0 | 0.00 | 0.00 | 0.00 | 82 | 1017.1 |
| 20260503054135 | 1 | 302 | 0.0 | 0.0 | 0.00 | 0.00 | 0.00 | 82 | 1017.3 |
| 20260503053633 | 1 | 302 | 0.0 | 0.0 | 0.00 | 0.00 | 0.00 | 81 | 1017.2 |
| 20260503053131 | 1 | 302 | 0.0 | 0.0 | 0.00 | 0.00 | 0.00 | 81 | 1017.3 |
| 20260503052627 | 1 | 302 | 0.0 | 0.0 | 0.00 | 0.00 | 0.00 | 80 | 1017.2 |
| 20260503052124 | 1 | 302 | 0.0 | 0.0 | 0.00 | 0.00 | 0.00 | 80 | 1017.1 |
| 20260503051619 | 1 | 302 | 0.0 | 0.0 | 0.00 | 0.00 | 0.00 | 81 | 1017.2 |
| 20260503051117 | 2 | 302 | 0.0 | 0.0 | 0.00 | 0.00 | 0.00 | 80 | 1017.1 |
| 20260503050613 | 2 | 302 | 0.0 | 0.0 | 0.00 | 0.00 | 0.00 | 80 | 1017.2 |
| 20260503050111 | 2 | 302 | 0.0 | 0.0 | 0.00 | 0.00 | 0.00 | 80 | 1017.1 |
| 20260503045608 | 2 | 302 | 0.0 | 0.0 | 0.00 | 0.00 | 0.00 | 80 | 1017.1 |
| 20260503045105 | 2 | 302 | 0.0 | 0.0 | 0.00 | 0.00 | 0.00 | 82 | 1017.0 |
| 20260503044601 | 2 | 302 | 0.0 | 0.0 | 0.00 | 0.00 | 0.00 | 80 | 1017.0 |
| 20260503044059 | 2 | 302 | 0.0 | 0.0 | 0.00 | 0.00 | 0.00 | 77 | 1017.0 |
| 20260503043554 | 2 | 302 | 0.0 | 0.0 | 0.00 | 0.00 | 0.00 | 78 | 1017.0 |
| 20260503043051 | 2 | 302 | 0.0 | 0.0 | 0.00 | 0.00 | 0.00 | 77 | 1016.9 |
| 20260503042548 | 2 | 302 | 0.0 | 0.0 | 0.00 | 0.00 | 0.00 | 77 | 1016.9 |
| 20260503042044 | 2 | 302 | 0.0 | 0.0 | 0.00 | 0.00 | 0.00 | 81 | 1016.7 |
| 20260503041542 | 2 | 302 | 0.0 | 0.0 | 0.00 | 0.00 | 0.00 | 77 | 1016.8 |
| 20260503041039 | 2 | 302 | 0.0 | 0.0 | 0.00 | 0.00 | 0.00 | 77 | 1016.6 |
| 20260503040537 | 2 | 302 | 0.0 | 0.0 | 0.00 | 0.00 | 0.00 | 78 | 1016.8 |
| 20260503040034 | 2 | 302 | 0.0 | 0.0 | 0.00 | 0.00 | 0.00 | 76 | 1016.9 |
| 20260503035530 | 2 | 302 | 0.0 | 0.0 | 0.00 | 0.00 | 0.00 | 78 | 1016.7 |
| 20260503035028 | 2 | 302 | 0.0 | 0.0 | 0.00 | 0.00 | 0.00 | 81 | 1016.8 |
| 20260503034525 | 2 | 302 | 0.0 | 0.0 | 0.00 | 0.00 | 0.00 | 81 | 1016.5 |
| 20260503034022 | 2 | 302 | 0.0 | 0.0 | 0.00 | 0.00 | 0.00 | 77 | 1016.6 |